Location: Del Amo
(33.8464°N, 118.2104°W)
Time: 08:31:09
(UTC+00:00)

Vanguard 1 Rocket - Pass Details

Date: 19 September 2024
Orbit: 650 x 4218 km, 34.3° (Epoch: 09 October)

Event Time Altitude Azimuth Distance (km) Brightness Sun altitude
Rises 14:55:15 0° 284° (WNW) 6,615 11.1 14.9°
Reaches altitude 10° 14:58:56 10° 283° (WNW) 5,963 11.0 15.6°
Maximum altitude 15:20:18 77° 202° (SSW) 4,180 11.0 20.0°
Drops below altitude 10° 15:46:09 10° 121° (ESE) 6,961 13.5 25.2°
Sets 15:50:55 0° 120° (ESE) 7,700 13.4 26.1°
